Regional Weather Roundup
Issued by NWS

Home | Current Version | Previous Version | Text Only | Print | Product List | Glossary On
Versions: 1 2 3 4 5 6 7 8 9 10 11 12 13 14 15 16 17 18 19 20 21 22 23 24 25 26 27 28 29 30 31 32 33 34 35 36 37 38 39 40 41 42 43 44 45 46 47 48 49 50
952
ASUS43 KMPX 201701
RWRMN
WEATHER ROUNDUP FOR MINNESOTA
NATIONAL WEATHER SERVICE TWIN CITIES/CHANHASSEN MN
1200 PM CDT FRI APR 20 2018


NOTE: "FAIR" INDICATES FEW OR NO CLOUDS BELOW 12,000 FEET WITH NO
SIGNIFICANT WEATHER AND/OR OBSTRUCTIONS TO VISIBILITY. N/A MEANS
CURRENT SKY AND/OR WEATHER CONDITIONS ARE NOT AVAILABLE.

MNZ060>063-068>070-201800-
   Twin Cities Metro

CITY           SKY/WX    TMP DP  RH WIND       PRES   REMARKS
TWIN CITIES    PTSUNNY   48  22  35 CALM      30.50F
ST PAUL        FAIR      48  20  32 SE3       30.51F
CRYSTAL        FAIR      47  16  29 S5        30.49F
BLAINE         PTSUNNY   52  19  28 SE7       30.49S
LAKEVILLE      FAIR      45  25  45 CALM      30.50F
EDEN PRAIRIE   FAIR      48  23  37 CALM      30.49F
SOUTH ST PAUL  FAIR      47  20  34 CALM      30.49F
LAKE ELMO      FAIR      46  27  46 CALM      30.50F
$$
MNZ001>005-007-008-013>017-022>024-027-028-201800-
   Northwest Minnesota

CITY           SKY/WX    TMP DP  RH WIND       PRES   REMARKS
BEMIDJI        FAIR      52  28  39 S6        30.41F
HALLOCK        FAIR      52  43  71 S9        30.39F
ROSEAU         FAIR      54  37  54 SW8       30.40F
WARROAD        FAIR      54  32  43 S6        30.40F
THIEF RVR FALL FAIR      50  28  42 SW8       30.42F
CROOKSTON      FAIR      50  30  46 SW9       30.43S
FOSSTON        FAIR      52  25  35 W5        30.43S
DETROIT LAKES  FAIR      52  28  40 SW6       30.44S
MOORHEAD       FAIR      48  30  49 S10       30.44F
PARK RAPIDS    FAIR      51  29  42 S5        30.42F
MAHNOMEN       FAIR      51  27  39 W6        30.42F
$$
MNZ006-009>011-018-025>026-201800-
   North Central Minnesota

CITY           SKY/WX    TMP DP  RH WIND       PRES   REMARKS
BAUDETTE       FAIR      54  30  40 VRB5      30.40F
FLAG ISLAND    FAIR      39  28  65 SE8       30.39F
INTL FALLS     FAIR      53  21  28 CALM      30.41F
WASKISH        FAIR      54  32  43 W3        30.42F
BIG FORK       FAIR      55  25  30 CALM      30.42S
LONGVILLE      FAIR      54  28  37 SW6       30.43S
GRAND RAPIDS   FAIR      52  25  35 CALM      30.44F
CRANE LAKE     FAIR      52  10  19 CALM      30.43S
ORR            FAIR      54  16  22 CALM      30.39F
COOK           FAIR      54  18  24 CALM      30.42F
WALKER         FAIR      51  30  43 E6        30.42S
$$
MNZ012-019>021-037-201800-
   Northeast Minnesota

CITY           SKY/WX    TMP DP  RH WIND       PRES   REMARKS
DULUTH         FAIR      52  21  29 SW6       30.43S
ELY            FAIR      52  10  19 S3        30.41F
HIBBING        FAIR      53  20  27 NW5       30.41F
EVELETH        FAIR      53  17  24 SW6       30.43S
DULUTH HARBOR  FAIR      55  23  28 SW6       30.45F
TWO HARBORS    FAIR      59  32  36 S13       30.41S
SILVER BAY     FAIR      55  25  30 S7        30.41S
GRAND MARAIS     N/A     38  28  67 SW6       30.44S
G MARAIS ARPRT FAIR      52   9  17 S6        30.41F
$$
MNZ029>031-032-039>041-046>048-054>057-064-201800-
   West Central Minnesota

CITY           SKY/WX    TMP DP  RH WIND       PRES   REMARKS
FERGUS FALLS   FAIR      48  27  43 S9        30.43S
WHEATON        PTSUNNY   46  32  57 SE8       30.46S
MORRIS         MOSUNNY   46  32  57 SE6       30.45S
ALEXANDRIA     FAIR      49  23  36 S8        30.45F
ELBOW LAKE     FAIR      47  26  43 SE9       30.45F
WADENA         FAIR      50  28  43 CALM      30.44S
GLENWOOD       FAIR      46  21  36 S7        30.46F
APPLETON       MOSUNNY   45  27  49 SE8       30.45F
BENSON         MOSUNNY   46  28  49 S9        30.48F
ORTONVILLE     PTSUNNY   46  30  53 SE8       30.44S
MADISON        MOSUNNY   41  30  65 E7        30.45F
WILLMAR        FAIR      45  30  57 SE9       30.50F
$$
MNZ033>034-036-042>043-049>051-058-059-201800-
   Central Minnesota

CITY           SKY/WX    TMP DP  RH WIND       PRES   REMARKS
ST CLOUD       FAIR      47  24  40 SW7       30.48F
SAUK CENTRE    FAIR      46  24  43 S7        30.47F
PAYNESVILLE    FAIR      46  27  48 S7        30.48F
AITKIN         FAIR      52  23  32 S10       30.43S
PINE RIVER     FAIR      50  30  46 S3        30.46S
BRAINERD       FAIR      52  28  39 SW8       30.45F
STAPLES        FAIR      50  25  37 SW5       30.44F
LONG PRAIRIE   FAIR      46  27  46 SE9       30.46F
LITTLE FALLS   FAIR      46   9  21 S6        30.47F
LITCHFIELD     FAIR      45  27  49 SE6       30.50S
BUFFALO        FAIR      45  20  36 S5        30.51S
MAPLE LAKE     FAIR      46  23  40 S5        30.51S
HUTCHINSON     FAIR      42  27  55 S6        30.51F
$$
MNZ037-044-045-052-053-201800-
   East Central Minnesota

CITY           SKY/WX    TMP DP  RH WIND       PRES   REMARKS
PRINCETON      FAIR      52  19  28 S5        30.48F
MORA           FAIR      50  23  34 S7        30.49F
CAMBRIDGE        N/A     50  28  43 S6        30.49F
RUSH CITY      FAIR      49  22  34 CALM      30.48F
MOOSE LAKE     FAIR      52  28  40 S3        30.43F
HINCKLEY       FAIR      52  28  40 SW7       30.47S
CLOQUET        FAIR      54  18  24 W5        30.43F
MCGREGOR       FAIR      54  27  35 SW6       30.44F
$$
MNZ071>073-080-081-089-090-097-098-201800-
   Southwest Minnesota

CITY           SKY/WX    TMP DP  RH WIND       PRES   REMARKS
MONTEVIDEO     MOSUNNY   45  27  49 S8        30.46F
GRANITE FALLS  MOSUNNY   41  28  59 SE9       30.48F
CANBY          CLOUDY    40  30  66 SE5       30.46S
MARSHALL       MOSUNNY   39  28  64 SE9       30.46
REDWOOD FALLS  CLOUDY    36  26  67 SE10      30.48F
OLIVIA         MOSUNNY   41  30  65 SE9       30.48F
PIPESTONE      MOSUNNY  N/A N/A N/A SE9       30.41F
WINDOM         MOSUNNY   37  18  44 E8        30.47S
WORTHINGTON    CLOUDY    39  28  64 SE7       30.45S
JACKSON        CLOUDY    34  27  75 E6        30.48R WCI  29
TRACY          MOSUNNY   40  31  68 SE6       30.45F
SLAYTON        PTSUNNY   38  30  73 SE8       30.45F
$$
MNZ065>067-074>077-082>085-091>093-201800-
   South Central Minnesota

CITY           SKY/WX    TMP DP  RH WIND       PRES   REMARKS
MANKATO        FAIR      41  21  44 S8        30.51S
NEW ULM        CLOUDY    37  23  56 S8        30.50F
ST JAMES       PTSUNNY   36  27  69 E7        30.51S
FAIRMONT       CLOUDY    34  24  67 SE7       30.49F WCI  28
GLENCOE        FAIR      41  27  56 S6        30.50S
OWATONNA       FAIR      45  27  49 S3        30.50S
WASECA         FAIR      39  28  65 S5        30.52S
ALBERT LEA     FAIR      39  19  45 SE3       30.50S
$$
MNZ078>079-086>088-094>096-201800-
   Southeast Minnesota

CITY           SKY/WX    TMP DP  RH WIND       PRES   REMARKS
ROCHESTER      FAIR      42  27  55 SE9       30.50F
RED WING       FAIR      48  19  32 W5        30.49F
STANTON        FAIR      44  30  57 CALM      30.50S
DODGE CENTER   FAIR      43  27  52 S5        30.50S
WINONA         FAIR      48  23  37 CALM      30.49F
AUSTIN         FAIR      39  23  52 S3        30.51S
PRESTON        FAIR      43  22  43 SE3       30.50F
$$
ABBREVIATIONS USED IN REMARKS
   TC - TEMPERATURES IN CELSIUS
  WCI - WIND CHILL INDEX
   HX - HEAT INDEX
  VSB - VISIBILITY
$$




USA.gov is the U.S. government's official web portal to all federal, state and local government web resources and services.